| time (UTC) | temp F | wind direction | speed MPH | gust MPH | rain 1hr in | rain 24hr in | rain mn in | humidity % | barometer mb |
| 20260902164211 | 64 | 22 | 4.0 | 5.0 | 0.00 | 0.00 | 0.00 | 70 | 1018.1 |
| 20260902163213 | 63 | 45 | 4.0 | 5.0 | 0.00 | 0.00 | 0.00 | 70 | 1018.2 |
| 20260902162213 | 64 | 45 | 5.0 | 6.0 | 0.00 | 0.00 | 0.00 | 70 | 1018.3 |
| 20260902160310 | 64 | 45 | 6.0 | 7.0 | 0.00 | 0.00 | 0.00 | 68 | 1018.5 |
| 20260902155313 | 64 | 45 | 5.0 | 6.0 | 0.00 | 0.00 | 0.00 | 68 | 1018.7 |
| 20260902154311 | 63 | 45 | 3.0 | 5.0 | 0.00 | 0.00 | 0.00 | 71 | 1018.9 |
| 20260902152313 | 62 | 45 | 2.0 | 4.0 | 0.00 | 0.00 | 0.00 | 74 | 1019.2 |
| 20260902150412 | 61 | 112 | 0.0 | 0.0 | 0.00 | 0.00 | 0.00 | 76 | 1019.3 |
| 20260902145415 | 61 | 112 | 0.0 | 0.0 | 0.00 | 0.00 | 0.00 | 76 | 1019.4 |
| 20260902144511 | 61 | 135 | 0.0 | 0.0 | 0.00 | 0.00 | 0.00 | 77 | 1019.4 |
| 20260902143512 | 61 | 135 | 0.0 | 0.0 | 0.00 | 0.00 | 0.00 | 76 | 1019.6 |
| 20260902143413 | 61 | 135 | 0.0 | 0.0 | 0.00 | 0.00 | 0.00 | 76 | 1019.5 |
| 20260902142512 | 61 | 135 | 0.0 | 0.0 | 0.00 | 0.00 | 0.00 | 74 | 1019.9 |
| 20260902140612 | 60 | 135 | 0.0 | 0.0 | 0.00 | 0.00 | 0.00 | 77 | 1020.1 |
| 20260902140514 | 60 | 135 | 0.0 | 0.0 | 0.00 | 0.00 | 0.00 | 77 | 1020.1 |
| 20260902135611 | 60 | 135 | 0.0 | 0.0 | 0.00 | 0.00 | 0.00 | 76 | 1020.1 |
| 20260902134612 | 60 | 135 | 0.0 | 1.0 | 0.00 | 0.00 | 0.00 | 78 | 1020.3 |
| 20260902133611 | 60 | 135 | 2.0 | 4.0 | 0.00 | 0.00 | 0.00 | 79 | 1020.3 |
| 20260902132711 | 60 | 180 | 0.0 | 0.0 | 0.00 | 0.00 | 0.00 | 79 | 1020.4 |
| 20260902131711 | 60 | 247 | 0.0 | 0.0 | 0.00 | 0.00 | 0.00 | 78 | 1020.3 |
| 20260902125712 | 61 | 241 | 8.0 | 11.0 | 0.00 | 0.00 | 0.00 | 75 | 1020.5 |
| 20260902124713 | 62 | 243 | 9.0 | 12.0 | 0.00 | 0.00 | 0.00 | 71 | 1020.5 |
| 20260902123714 | 63 | 265 | 12.0 | 18.0 | 0.00 | 0.00 | 0.00 | 68 | 1020.4 |
| 20260902122712 | 63 | 257 | 6.0 | 8.0 | 0.00 | 0.00 | 0.00 | 68 | 1020.5 |
| 20260902121712 | 63 | 232 | 4.0 | 6.0 | 0.00 | 0.00 | 0.00 | 68 | 1020.3 |
| 20260902115713 | 63 | 253 | 4.0 | 7.0 | 0.00 | 0.00 | 0.00 | 71 | 1020.5 |
| 20260902114715 | 62 | 262 | 2.0 | 3.0 | 0.00 | 0.00 | 0.00 | 70 | 1020.6 |
| 20260902113711 | 63 | 210 | 1.0 | 3.0 | 0.00 | 0.00 | 0.00 | 70 | 1020.8 |
| 20260902112712 | 63 | 247 | 4.0 | 5.0 | 0.00 | 0.00 | 0.00 | 70 | 1020.6 |
| 20260902110711 | 63 | 260 | 5.0 | 6.0 | 0.00 | 0.00 | 0.00 | 69 | 1020.6 |
| 20260902105712 | 63 | 225 | 4.0 | 6.0 | 0.00 | 0.00 | 0.00 | 68 | 1020.8 |
| 20260902104712 | 63 | 248 | 6.0 | 7.0 | 0.00 | 0.00 | 0.00 | 68 | 1020.8 |
| 20260902103715 | 63 | 227 | 5.0 | 7.0 | 0.00 | 0.00 | 0.00 | 69 | 1020.9 |
| 20260902101713 | 63 | 255 | 6.0 | 9.0 | 0.00 | 0.00 | 0.00 | 68 | 1021.2 |
| 20260902100810 | 64 | 225 | 5.0 | 6.0 | 0.00 | 0.00 | 0.00 | 67 | 1021.3 |
| 20260902095813 | 64 | 242 | 9.0 | 12.0 | 0.00 | 0.00 | 0.00 | 67 | 1021.4 |
| 20260902094814 | 64 | 223 | 4.0 | 7.0 | 0.00 | 0.00 | 0.00 | 68 | 1021.4 |
| 20260902092910 | 64 | 229 | 5.0 | 8.0 | 0.00 | 0.00 | 0.00 | 70 | 1021.4 |
| 20260902091913 | 64 | 238 | 12.0 | 16.0 | 0.00 | 0.00 | 0.00 | 70 | 1021.2 |
| 20260902090813 | 64 | 226 | 6.0 | 9.0 | 0.00 | 0.00 | 0.00 | 69 | 1021.4 |
| 20260902085814 | 64 | 225 | 5.0 | 7.0 | 0.00 | 0.00 | 0.00 | 70 | 1021.5 |
| 20260902084811 | 64 | 240 | 9.0 | 13.0 | 0.00 | 0.00 | 0.00 | 71 | 1021.3 |
| 20260902083813 | 64 | 234 | 4.0 | 5.0 | 0.00 | 0.00 | 0.00 | 70 | 1021.6 |
| 20260902082811 | 64 | 229 | 6.0 | 9.0 | 0.00 | 0.00 | 0.00 | 70 | 1021.3 |
| 20260902081813 | 64 | 227 | 5.0 | 7.0 | 0.00 | 0.00 | 0.00 | 71 | 1021.5 |
| 20260902080911 | 64 | 225 | 6.0 | 8.0 | 0.00 | 0.00 | 0.00 | 71 | 1021.5 |
| 20260902075912 | 64 | 230 | 6.0 | 8.0 | 0.00 | 0.00 | 0.00 | 71 | 1021.5 |
| 20260902075010 | 63 | 248 | 8.0 | 9.0 | 0.00 | 0.00 | 0.00 | 70 | 1021.5 |
| 20260902074013 | 63 | 225 | 9.0 | 12.0 | 0.00 | 0.00 | 0.00 | 70 | 1021.7 |
| 20260902073110 | 63 | 229 | 8.0 | 11.0 | 0.00 | 0.00 | 0.00 | 71 | 1021.7 |
| 20260902072112 | 63 | 225 | 6.0 | 8.0 | 0.00 | 0.00 | 0.00 | 72 | 1021.7 |
| 20260902071112 | 63 | 240 | 9.0 | 12.0 | 0.00 | 0.00 | 0.00 | 72 | 1021.9 |
| 20260902070112 | 63 | 239 | 6.0 | 9.0 | 0.00 | 0.00 | 0.00 | 73 | 1022.1 |
| 20260902065124 | 63 | 229 | 6.0 | 9.0 | 0.00 | 0.00 | 0.00 | 74 | 1022.2 |
| 20260902064223 | 63 | 245 | 9.0 | 11.0 | 0.00 | 0.00 | 0.00 | 74 | 1022.4 |
| 20260902063224 | 63 | 247 | 10.0 | 13.0 | 0.00 | 0.00 | 0.00 | 74 | 1022.4 |
| 20260902062228 | 63 | 243 | 11.0 | 15.0 | 0.00 | 0.00 | 0.00 | 71 | 1022.4 |
| 20260902060327 | 65 | 255 | 14.0 | 22.0 | 0.00 | 0.00 | 0.00 | 67 | 1022.2 |
| 20260902055325 | 65 | 252 | 11.0 | 14.0 | 0.00 | 0.00 | 0.00 | 67 | 1022.2 |
| 20260902054326 | 65 | 233 | 9.0 | 13.0 | 0.00 | 0.00 | 0.00 | 68 | 1022.4 |
| 20260902053424 | 65 | 238 | 10.0 | 13.0 | 0.00 | 0.00 | 0.00 | 68 | 1022.2 |
| 20260902051524 | 65 | 244 | 9.0 | 11.0 | 0.00 | 0.00 | 0.00 | 67 | 1022.2 |
| 20260902051426 | 65 | 245 | 10.0 | 15.0 | 0.00 | 0.00 | 0.00 | 67 | 1022.1 |
| 20260902050525 | 65 | 227 | 11.0 | 15.0 | 0.00 | 0.00 | 0.00 | 66 | 1021.9 |
| 20260902045526 | 65 | 228 | 9.0 | 17.0 | 0.00 | 0.00 | 0.00 | 66 | 1022.0 |
| 20260902044527 | 66 | 229 | 12.0 | 16.0 | 0.00 | 0.00 | 0.00 | 65 | 1021.8 |
| 20260902043624 | 66 | 226 | 9.0 | 12.0 | 0.00 | 0.00 | 0.00 | 65 | 1021.8 |
| 20260902042723 | 66 | 237 | 8.0 | 11.0 | 0.00 | 0.00 | 0.00 | 65 | 1021.9 |
| 20260902035725 | 67 | 226 | 7.0 | 11.0 | 0.00 | 0.00 | 0.00 | 62 | 1021.7 |
| 20260902033725 | 67 | 238 | 9.0 | 13.0 | 0.00 | 0.00 | 0.00 | 62 | 1021.2 |
| 20260902032726 | 67 | 238 | 9.0 | 11.0 | 0.00 | 0.00 | 0.00 | 62 | 1021.4 |
| 20260902032624 | 67 | 241 | 11.0 | 12.0 | 0.00 | 0.00 | 0.00 | 62 | 1021.4 |
| 20260902031625 | 67 | 241 | 13.0 | 17.0 | 0.00 | 0.00 | 0.00 | 62 | 1021.3 |
| 20260902030626 | 67 | 240 | 9.0 | 13.0 | 0.00 | 0.00 | 0.00 | 61 | 1021.5 |
| 20260902025626 | 67 | 242 | 13.0 | 17.0 | 0.00 | 0.00 | 0.00 | 61 | 1021.3 |
| 20260902024625 | 67 | 238 | 9.0 | 13.0 | 0.00 | 0.00 | 0.00 | 62 | 1021.2 |
| 20260902023724 | 67 | 232 | 9.0 | 14.0 | 0.00 | 0.00 | 0.00 | 63 | 1021.2 |
| 20260902022725 | 67 | 225 | 9.0 | 12.0 | 0.00 | 0.00 | 0.00 | 64 | 1021.2 |
| 20260902021727 | 68 | 225 | 7.0 | 10.0 | 0.00 | 0.00 | 0.00 | 65 | 1021.0 |
| 20260902020824 | 68 | 230 | 9.0 | 13.0 | 0.00 | 0.00 | 0.00 | 63 | 1021.1 |
| 20260902015826 | 68 | 228 | 10.0 | 13.0 | 0.00 | 0.00 | 0.00 | 64 | 1021.0 |
| 20260902014827 | 68 | 229 | 8.0 | 9.0 | 0.00 | 0.00 | 0.00 | 63 | 1021.0 |
| 20260902013925 | 68 | 229 | 11.0 | 15.0 | 0.00 | 0.00 | 0.00 | 63 | 1021.2 |
| 20260902012926 | 68 | 225 | 11.0 | 14.0 | 0.00 | 0.00 | 0.00 | 64 | 1021.3 |
| 20260902012023 | 68 | 225 | 10.0 | 14.0 | 0.00 | 0.00 | 0.00 | 62 | 1021.1 |
| 20260902011123 | 68 | 216 | 7.0 | 11.0 | 0.00 | 0.00 | 0.00 | 62 | 1020.9 |
| 20260902010125 | 69 | 232 | 11.0 | 14.0 | 0.00 | 0.00 | 0.00 | 63 | 1020.7 |
| 20260902004225 | 68 | 220 | 11.0 | 14.0 | 0.00 | 0.00 | 0.00 | 62 | 1020.9 |
| 20260902003225 | 68 | 225 | 11.0 | 14.0 | 0.00 | 0.00 | 0.00 | 62 | 1020.7 |
| 20260902002225 | 68 | 230 | 10.0 | 13.0 | 0.00 | 0.00 | 0.00 | 62 | 1020.8 |
| 20260902002127 | 68 | 226 | 9.0 | 14.0 | 0.00 | 0.00 | 0.00 | 63 | 1020.8 |
| 20260902000226 | 68 | 220 | 12.0 | 17.0 | 0.00 | 0.00 | 0.00 | 61 | 1020.8 |
| 20260901235323 | 69 | 235 | 9.0 | 11.0 | 0.00 | 0.00 | 0.00 | 60 | 1020.8 |
| 20260901234324 | 69 | 224 | 12.0 | 15.0 | 0.00 | 0.00 | 0.00 | 60 | 1020.8 |
| 20260901233424 | 69 | 228 | 10.0 | 14.0 | 0.00 | 0.00 | 0.00 | 61 | 1020.9 |
| 20260901232427 | 68 | 225 | 13.0 | 18.0 | 0.00 | 0.00 | 0.00 | 61 | 1021.0 |
| 20260901230424 | 68 | 220 | 8.0 | 12.0 | 0.00 | 0.00 | 0.00 | 62 | 1021.1 |
| 20260901223425 | 68 | 226 | 13.0 | 17.0 | 0.00 | 0.00 | 0.00 | 64 | 1021.4 |
| 20260901221425 | 67 | 222 | 12.0 | 17.0 | 0.00 | 0.00 | 0.00 | 65 | 1021.4 |
| 20260901220425 | 67 | 214 | 17.0 | 21.0 | 0.00 | 0.00 | 0.00 | 66 | 1021.3 |
| 20260901214425 | 67 | 210 | 10.0 | 13.0 | 0.00 | 0.00 | 0.00 | 65 | 1021.3 |
| 20260901213523 | 67 | 223 | 9.0 | 12.0 | 0.00 | 0.00 | 0.00 | 65 | 1021.4 |
| 20260901212524 | 67 | 211 | 12.0 | 17.0 | 0.00 | 0.00 | 0.00 | 66 | 1021.4 |
| 20260901211525 | 66 | 219 | 9.0 | 17.0 | 0.00 | 0.00 | 0.00 | 65 | 1021.5 |
| 20260901210526 | 67 | 229 | 8.0 | 10.0 | 0.00 | 0.00 | 0.00 | 65 | 1021.5 |
| 20260901205625 | 66 | 230 | 9.0 | 12.0 | 0.00 | 0.00 | 0.00 | 65 | 1021.4 |
| 20260901204723 | 66 | 224 | 8.0 | 10.0 | 0.00 | 0.00 | 0.00 | 66 | 1021.5 |
| 20260901203725 | 66 | 215 | 5.0 | 8.0 | 0.00 | 0.00 | 0.00 | 67 | 1021.7 |
| 20260901202725 | 66 | 226 | 8.0 | 12.0 | 0.00 | 0.00 | 0.00 | 67 | 1021.8 |
| 20260901201724 | 66 | 221 | 9.0 | 13.0 | 0.00 | 0.00 | 0.00 | 67 | 1021.8 |
| 20260901200724 | 66 | 221 | 7.0 | 10.0 | 0.00 | 0.00 | 0.00 | 67 | 1021.8 |
| 20260901195726 | 65 | 203 | 6.0 | 11.0 | 0.00 | 0.00 | 0.00 | 69 | 1022.1 |
| 20260901194823 | 65 | 225 | 10.0 | 12.0 | 0.00 | 0.00 | 0.00 | 67 | 1022.0 |
| 20260901193825 | 65 | 224 | 8.0 | 11.0 | 0.00 | 0.00 | 0.00 | 67 | 1022.2 |
| 20260901190923 | 65 | 243 | 8.0 | 11.0 | 0.00 | 0.00 | 0.00 | 69 | 1022.5 |
| 20260901185926 | 65 | 230 | 7.0 | 11.0 | 0.00 | 0.00 | 0.00 | 69 | 1022.5 |
| 20260901185025 | 64 | 231 | 8.0 | 14.0 | 0.00 | 0.00 | 0.00 | 71 | 1022.5 |
| 20260901184026 | 64 | 228 | 7.0 | 10.0 | 0.00 | 0.00 | 0.00 | 71 | 1022.6 |
| 20260901183025 | 64 | 233 | 9.0 | 12.0 | 0.00 | 0.00 | 0.00 | 70 | 1022.6 |
| 20260901182024 | 64 | 239 | 9.0 | 12.0 | 0.00 | 0.00 | 0.00 | 70 | 1022.5 |
| 20260901181026 | 64 | 239 | 9.0 | 13.0 | 0.00 | 0.00 | 0.00 | 71 | 1022.6 |
| 20260901175026 | 63 | 246 | 12.0 | 17.0 | 0.00 | 0.00 | 0.00 | 72 | 1022.5 |
| 20260901174125 | 63 | 227 | 5.0 | 9.0 | 0.00 | 0.00 | 0.00 | 72 | 1022.8 |
| 20260901173127 | 63 | 245 | 11.0 | 14.0 | 0.00 | 0.00 | 0.00 | 73 | 1022.7 |
| 20260901172224 | 63 | 235 | 8.0 | 12.0 | 0.00 | 0.00 | 0.00 | 74 | 1022.7 |
| 20260901171226 | 63 | 252 | 8.0 | 10.0 | 0.00 | 0.00 | 0.00 | 73 | 1022.7 |
| 20260901170226 | 62 | 250 | 9.0 | 12.0 | 0.00 | 0.00 | 0.00 | 72 | 1022.6 |
| 20260901165223 | 62 | 239 | 8.0 | 11.0 | 0.00 | 0.00 | 0.00 | 72 | 1022.6 |